Wind_Speed
8 7 4 0 4 2 4 6 2 8 8 3 4 3 1 5 2 2 10 4 3 5 6 8 8 10 13 15 17 20 23 24 23 23 25 26 27 28 29 31 32 33 33 33 31 30 30 30 31
9 7 2 2 4 5 4 6 8 9 5 11 8 5 3 3 4 7 8 5 4 3 4 6 8 10 12 14 17 20 21 19 19 21 22 24 25 27 29 30 31 32 33 34 34 34 35 33 33
8 6 1 1 1 3 2 10 10 10 14 7 5 2 3 5 7 8 9 6 4 3 4 5 8 9 11 15 16 18 18 18 20 22 23 23 25 26 27 28 29 31 32 32 33 34 34 34 32
6 3 4 3 1 1 0 12 11 18 5 6 5 4 4 10 8 10 9 7 5 3 3 4 5 8 11 13 15 16 17 18 19 20 21 24 25 26 27 29 31 32 33 34 34 34 34 35 35
9 3 2 1 3 3 2 12 22 15 9 10 10 5 5 10 11 11 9 7 5 2 1 2 5 7 9 11 14 14 15 16 18 20 22 24 25 26 29 32 33 34 35 34 33 33 34 33 34
3 1 3 3 4 4 4 12 16 10 9 9 7 9 6 12 14 13 10 7 4 2 1 1 4 7 10 12 12 13 14 15 17 20 22 24 27 29 31 33 35 36 35 33 33 33 30 30 31
5 2 1 1 4 5 9 16 15 12 10 10 5 9 5 17 18 15 11 8 6 4 2 1 4 7 8 9 10 12 14 16 18 20 23 25 26 29 32 35 37 36 34 34 35 34 33 32 31
6 3 4 3 6 3 13 20 10 12 11 8 10 6 5 22 22 17 13 10 8 5 3 1 3 4 7 8 9 11 13 15 17 19 21 24 27 30 33 36 37 36 36 36 36 34 34 34 35
6 3 3 5 8 3 14 15 8 8 7 9 11 5 7 20 23 20 17 14 10 6 4 2 2 4 6 8 10 11 13 14 16 19 22 25 28 32 34 36 38 37 38 35 34 34 35 35 35
3 4 4 2 5 4 18 19 15 8 11 11 10 15 11 21 24 22 19 15 11 8 5 4 2 4 6 8 9 12 13 14 17 19 22 25 29 32 34 36 38 37 38 39 38 38 38 39 38
1 2 3 3 4 4 14 15 13 12 11 17 21 19 19 24 26 22 18 14 12 9 7 5 2 4 6 8 9 12 13 14 17 20 24 27 30 33 35 38 39 41 41 40 40 41 40 38 37
4 2 2 3 6 9 10 11 9 20 9 9 15 19 23 26 27 24 21 19 14 12 9 6 3 4 6 7 9 11 12 14 17 20 24 27 30 34 36 38 39 39 39 40 40 40 40 38 36
3 6 3 4 8 8 10 12 9 17 19 12 13 20 25 26 25 24 22 20 18 14 11 7 5 4 5 7 9 10 12 15 18 21 24 28 31 33 35 37 39 37 38 38 39 39 38 37 36
4 5 4 4 5 5 8 6 6 11 19 22 18 21 25 27 28 27 28 24 20 16 14 9 6 4 5 7 9 10 12 14 17 21 24 27 30 33 34 36 37 36 36 37 37 36 36 35 35
8 3 1 5 5 3 5 9 18 15 16 19 21 21 24 28 28 30 26 24 21 19 15 11 6 4 5 6 8 10 12 14 18 20 24 27 30 32 34 35 36 36 36 36 36 35 36 35 33
2 1 3 5 8 2 4 10 1 15 16 19 20 22 25 29 32 27 27 26 23 21 16 12 8 5 4 6 8 9 11 14 17 20 23 27 29 31 33 34 35 34 34 34 35 36 37 34 33
2 4 7 2 9 4 10 8 1 6 14 18 20 23 26 27 30 32 32 29 26 22 18 14 10 7 5 6 8 9 11 13 16 19 23 26 29 31 32 33 35 34 33 32 34 34 34 32 35
5 5 4 7 4 7 9 22 11 7 13 21 22 24 27 30 34 34 32 30 27 24 21 18 13 9 6 7 7 9 10 13 15 19 22 26 28 30 31 33 33 32 31 31 32 33 33 29 35
5 4 4 2 2 5 16 20 21 18 18 22 25 28 31 34 29 29 33 32 31 28 24 20 15 11 8 7 7 8 10 12 14 18 22 25 28 29 30 31 32 31 30 29 29 32 33 32 36
3 2 5 2 3 4 7 17 21 20 31 35 34 35 36 31 30 30 33 36 35 31 27 24 19 14 11 9 7 8 9 9 13 16 21 24 26 29 29 29 30 29 29 28 28 30 33 31 31
4 6 4 4 2 4 11 13 6 5 20 26 30 36 32 34 33 32 36 38 36 34 31 26 21 17 14 10 8 8 8 9 12 15 19 23 25 26 26 28 29 28 27 26 26 27 28 30 28
5 3 2 1 3 4 4 8 9 13 13 12 19 23 29 28 29 31 35 41 41 37 33 28 24 20 16 12 9 8 8 9 11 15 19 21 23 24 25 26 27 26 25 24 24 24 25 26 27
2 3 4 2 0 4 3 5 4 3 10 10 6 15 20 23 27 31 37 41 40 39 35 32 27 23 18 13 10 8 8 8 10 13 17 20 21 23 24 24 25 24 24 22 22 22 23 23 25
12 5 4 3 1 4 2 4 3 3 3 2 4 7 5 14 18 22 27 34 39 39 37 34 30 25 20 16 12 9 8 7 9 12 15 17 20 21 21 23 23 23 23 23 22 20 20 21 22
2 5 1 2 2 5 3 4 11 6 8 8 9 4 3 3 11 19 26 33 38 42 40 37 32 28 22 18 14 11 9 7 8 11 13 16 18 19 20 22 23 24 24 24 22 19 18 19 21
9 3 4 4 4 1 3 7 5 5 5 9 6 10 11 14 13 18 22 28 36 41 41 39 35 30 25 20 16 12 10 8 7 9 12 14 16 18 18 20 21 22 24 24 21 18 16 17 19
6 6 3 6 1 1 4 7 12 8 11 14 17 8 8 10 14 17 21 26 31 39 43 41 37 32 26 22 17 13 10 8 6 8 10 12 15 16 16 18 20 21 23 22 20 18 15 15 17
2 6 4 0 4 6 3 6 9 4 1 3 3 15 13 11 12 16 19 23 28 34 40 40 37 32 28 23 19 15 12 8 7 7 8 10 13 14 14 15 17 19 22 22 20 17 14 14 15
4 4 1 1 3 4 3 5 6 7 3 5 3 2 6 16 16 17 19 21 26 31 39 42 40 36 31 26 21 16 13 10 8 6 6 8 10 12 13 14 16 19 22 21 19 17 13 13 13
2 4 7 5 6 2 2 6 2 7 5 5 11 8 8 9 16 18 20 22 26 31 37 44 43 39 34 28 23 19 15 12 9 5 4 6 9 11 11 13 15 17 21 21 19 18 14 12 13
Wind_Direction
154 153 133 116 222 243 150 160 115 159 169 157 145 203 231 32 340 34 148 127 70 40 37 24 42 30 34 32 31 31 27 23 16 13 11 10 7 5 1 358 355 353 352 348 346 344 340 336 331
154 138 108 78 241 230 156 156 181 163 135 132 121 123 137 93 83 138 144 138 106 69 48 48 38 33 32 31 32 29 26 18 15 13 11 8 4 1 360 357 355 352 348 343 338 333 330 330 330
157 147 159 81 191 263 170 177 148 137 139 152 138 105 148 146 146 153 157 147 129 80 55 35 33 33 28 29 29 26 20 16 15 13 10 7 5 4 1 358 355 351 346 341 336 332 329 328 327
145 115 68 258 201 112 38 162 155 149 187 185 169 157 149 168 167 170 163 154 121 88 54 32 32 32 28 28 26 22 16 16 13 10 7 7 6 4 1 359 356 350 346 342 338 333 328 323 323
161 129 198 158 152 153 199 169 161 167 162 172 176 167 171 186 177 175 172 158 131 120 80 24 24 28 27 25 24 17 15 13 10 9 9 8 6 3 0 359 354 350 346 343 340 335 330 325 322
122 160 220 239 176 167 187 179 171 182 170 160 183 161 171 190 181 181 175 164 153 175 183 21 16 16 19 21 18 12 14 12 11 10 8 6 5 1 359 357 354 350 347 344 343 340 336 333 327
154 186 213 175 179 183 181 172 187 184 175 194 169 172 189 187 187 186 180 172 187 206 213 13 14 13 15 17 12 12 12 9 9 7 6 6 3 360 358 357 352 349 349 348 344 341 338 333 328
125 106 151 192 196 205 167 170 193 190 186 182 179 203 200 191 189 188 186 185 200 208 220 309 357 1 11 9 8 10 11 12 7 4 4 4 1 359 358 356 350 353 352 349 346 344 338 334 331
135 195 206 193 178 157 162 182 171 197 163 189 198 202 212 189 190 190 190 193 203 209 223 260 310 353 3 6 6 6 12 9 4 3 3 3 360 359 358 354 353 353 349 348 347 345 342 339 338
207 226 199 175 188 177 179 192 172 178 189 212 212 215 203 190 195 194 193 196 204 213 223 242 291 347 358 360 360 8 7 3 1 2 2 1 359 358 357 352 352 352 351 352 350 350 348 348 343
88 246 143 165 192 175 178 195 179 198 211 215 213 200 200 192 196 197 195 202 212 216 223 239 294 339 345 353 355 3 1 359 359 358 1 0 358 357 355 354 354 354 353 353 351 349 348 346 343
153 118 212 170 181 163 177 176 203 208 218 210 211 208 202 197 198 198 199 207 211 214 221 237 275 311 339 344 356 355 356 356 356 357 360 358 357 357 356 355 354 353 354 352 350 348 346 345 343
131 168 179 200 189 190 167 190 205 224 219 226 205 203 202 200 200 203 205 209 211 212 219 229 251 293 332 345 350 352 351 353 353 357 357 357 356 356 355 355 353 352 351 352 348 348 346 343 342
125 148 162 197 180 168 199 197 192 235 214 221 218 210 205 203 203 204 208 208 211 212 218 221 237 279 327 344 341 346 348 348 350 355 355 355 355 354 354 354 350 352 350 352 349 346 347 342 343
130 116 218 202 182 172 214 230 229 221 205 207 214 209 207 207 207 212 212 212 213 215 215 218 232 268 314 332 335 341 344 345 349 351 353 353 353 353 353 353 350 350 351 351 350 346 347 344 341
150 216 232 160 166 153 204 258 260 211 200 211 211 210 208 209 214 210 214 214 213 215 213 219 229 249 296 319 331 334 339 340 344 348 351 351 352 352 354 351 349 350 349 352 352 351 347 346 341
179 256 228 265 192 150 214 275 133 205 214 227 220 214 213 211 213 214 215 213 214 215 215 220 228 243 279 307 321 328 332 335 340 345 348 349 352 353 352 351 350 349 350 353 352 354 350 345 342
193 222 235 250 147 220 233 258 255 240 219 228 227 223 221 218 218 217 214 213 213 214 216 220 226 237 263 293 310 321 326 329 338 342 345 350 352 354 351 353 349 349 352 353 353 352 354 350 346
134 183 249 224 118 232 242 261 267 254 238 232 228 227 226 226 221 218 216 214 214 215 217 220 224 232 250 276 298 314 317 327 332 337 347 350 352 352 353 353 350 349 353 354 353 351 356 357 356
172 215 247 242 133 226 290 278 273 252 238 236 234 229 227 224 217 214 213 214 216 218 217 218 221 226 237 256 282 295 304 317 329 341 346 349 352 354 352 352 351 350 352 353 353 355 357 360 0
194 222 216 281 323 238 304 273 270 269 246 247 243 240 235 227 216 211 211 214 216 216 217 219 221 225 233 247 267 285 302 318 331 338 344 352 354 350 350 355 352 352 354 353 354 354 359 357 3
220 184 131 102 314 290 350 293 298 281 275 247 250 238 235 229 223 217 213 214 215 216 216 217 222 226 231 241 259 279 296 309 323 339 348 352 351 350 354 357 354 352 355 353 353 354 356 359 357
125 110 103 85 252 319 181 259 261 287 289 291 294 242 230 222 220 216 215 217 217 215 215 217 219 223 228 237 250 267 281 300 322 339 348 350 352 352 355 357 354 355 356 356 352 353 356 360 359
141 106 85 82 352 270 128 252 265 239 223 305 10 8 223 214 217 217 217 214 214 214 213 216 218 221 225 232 244 259 273 294 318 336 347 350 353 353 356 359 357 359 357 358 354 353 356 359 359
210 156 212 221 189 240 129 256 262 244 238 250 282 245 335 198 211 209 209 208 208 211 212 215 217 219 222 228 237 251 263 279 307 332 346 351 352 354 356 2 1 2 1 360 355 355 354 358 358
187 211 196 228 214 347 134 237 245 235 225 214 246 252 238 245 228 213 213 212 212 212 213 215 216 217 219 225 232 243 252 267 300 326 343 350 353 353 358 6 3 2 3 2 2 356 354 1 359
164 216 81 103 113 252 245 276 273 276 263 249 232 213 210 208 209 210 211 214 215 213 215 215 215 216 218 223 228 236 245 254 288 319 342 349 354 353 359 8 4 4 6 3 3 3 0 7 2
233 148 129 337 220 235 221 280 250 265 243 9 209 230 226 222 214 209 211 212 213 214 214 215 217 218 219 221 225 230 237 244 272 311 337 349 353 351 1 12 7 6 7 5 7 9 9 9 7
154 191 200 210 208 247 243 234 202 236 244 268 258 237 237 226 224 218 214 213 213 213 214 214 214 214 216 218 222 225 231 232 257 293 328 347 353 349 2 14 11 9 9 11 10 8 9 9 7
253 219 190 210 196 245 326 257 160 231 232 253 272 271 238 231 220 219 220 216 214 213 212 213 214 214 215 217 218 221 225 227 242 270 318 343 355 349 3 16 12 11 10 11 11 6 6 6 3
Height
1529 1529 1529 1530 1533 1533 1543 1549 1551 1555 1558 1561 1562 1562 1561 1564 1561 1563 1570 1570 1570 1570 1570 1569 1567 1564 1562 1559 1557 1554 1552 1550 1548 1546 1542 1538 1535 1532 1528 1524 1520 1516 1513 1509 1505 1502 1497 1492 1487
1528 1529 1530 1531 1531 1533 1535 1547 1550 1552 1558 1561 1563 1564 1564 1565 1567 1567 1569 1569 1569 1569 1569 1568 1565 1564 1561 1559 1556 1554 1552 1551 1549 1546 1543 1539 1535 1531 1528 1524 1520 1515 1511 1507 1502 1498 1493 1488 1483
1528 1528 1531 1531 1536 1529 1534 1545 1549 1558 1560 1562 1563 1564 1565 1567 1567 1567 1568 1568 1569 1569 1568 1566 1565 1563 1561 1558 1556 1554 1552 1551 1548 1545 1542 1539 1535 1532 1528 1524 1519 1515 1510 1505 1499 1494 1490 1484 1479
1527 1530 1534 1530 1536 1544 1543 1544 1550 1557 1561 1561 1561 1562 1565 1563 1566 1566 1566 1567 1567 1567 1567 1566 1564 1562 1560 1557 1555 1554 1553 1550 1547 1544 1542 1538 1534 1530 1526 1521 1516 1511 1506 1500 1495 1491 1485 1480 1474
1527 1528 1529 1534 1540 1545 1549 1548 1551 1554 1556 1558 1560 1560 1564 1563 1563 1565 1566 1567 1567 1566 1566 1565 1563 1561 1559 1558 1556 1555 1552 1549 1546 1543 1540 1536 1532 1528 1524 1519 1514 1508 1503 1497 1491 1486 1480 1476 1470
1527 1528 1529 1531 1539 1546 1549 1551 1552 1554 1556 1558 1560 1560 1563 1561 1562 1563 1564 1565 1566 1565 1565 1564 1562 1560 1559 1557 1556 1553 1551 1549 1546 1542 1539 1534 1530 1526 1521 1516 1510 1505 1500 1494 1487 1482 1476 1470 1465
1525 1526 1530 1536 1540 1544 1544 1551 1552 1553 1555 1557 1557 1558 1561 1559 1560 1561 1562 1563 1564 1564 1563 1563 1562 1560 1559 1557 1555 1553 1550 1547 1545 1542 1537 1533 1528 1524 1519 1513 1508 1503 1497 1490 1485 1479 1472 1466 1462
1525 1528 1537 1537 1539 1535 1541 1548 1550 1552 1553 1553 1556 1553 1555 1555 1556 1559 1560 1562 1562 1562 1562 1562 1561 1560 1558 1557 1555 1552 1550 1547 1544 1540 1536 1531 1528 1523 1517 1511 1507 1499 1492 1486 1481 1474 1469 1462 1455
1524 1525 1528 1530 1536 1531 1541 1544 1547 1549 1551 1552 1552 1552 1551 1552 1554 1556 1559 1560 1561 1561 1561 1561 1560 1559 1558 1556 1554 1551 1549 1546 1543 1539 1534 1530 1526 1520 1514 1509 1503 1496 1490 1485 1478 1471 1465 1459 1450
1524 1523 1522 1529 1530 1531 1537 1539 1544 1548 1549 1549 1548 1548 1549 1550 1552 1554 1556 1558 1560 1560 1561 1559 1559 1558 1557 1555 1553 1550 1547 1544 1541 1537 1533 1529 1523 1517 1511 1507 1501 1495 1488 1478 1473 1465 1459 1452 1446
1526 1522 1529 1530 1531 1534 1537 1540 1542 1543 1544 1539 1540 1544 1545 1547 1549 1552 1555 1557 1558 1559 1559 1558 1558 1558 1556 1554 1551 1549 1546 1543 1539 1535 1531 1527 1521 1515 1510 1503 1496 1489 1482 1475 1468 1461 1455 1449 1443
1526 1531 1530 1531 1530 1532 1534 1535 1536 1536 1535 1535 1538 1539 1541 1543 1546 1549 1552 1553 1555 1556 1556 1557 1557 1555 1554 1553 1550 1548 1545 1541 1538 1534 1530 1525 1520 1514 1508 1501 1494 1487 1480 1474 1466 1459 1453 1447 1442
1525 1529 1529 1529 1529 1529 1530 1532 1533 1532 1533 1533 1533 1534 1536 1540 1543 1546 1549 1550 1551 1553 1554 1554 1553 1553 1552 1551 1549 1546 1543 1540 1537 1533 1528 1523 1518 1512 1506 1499 1493 1486 1480 1473 1466 1460 1453 1446 1438
1527 1528 1529 1530 1531 1532 1531 1532 1534 1525 1528 1528 1530 1531 1534 1536 1537 1541 1543 1546 1548 1550 1550 1550 1551 1551 1550 1549 1547 1545 1542 1539 1535 1532 1527 1522 1516 1511 1505 1498 1492 1485 1480 1474 1467 1459 1452 1445 1436
1529 1528 1530 1530 1531 1532 1532 1529 1521 1521 1521 1525 1527 1529 1531 1532 1534 1535 1540 1542 1544 1546 1547 1548 1549 1549 1548 1547 1545 1543 1540 1538 1535 1531 1526 1522 1516 1510 1504 1498 1492 1485 1479 1473 1468 1459 1450 1443 1435
1529 1529 1522 1525 1530 1532 1533 1508 1515 1519 1521 1521 1524 1525 1526 1526 1529 1534 1535 1537 1540 1542 1545 1546 1546 1546 1546 1544 1543 1541 1538 1536 1533 1530 1525 1520 1515 1509 1503 1497 1491 1484 1478 1471 1467 1459 1449 1442 1434
1530 1516 1522 1521 1529 1531 1530 1510 1516 1517 1519 1520 1520 1521 1521 1523 1524 1525 1528 1532 1536 1539 1541 1543 1544 1544 1543 1542 1541 1539 1536 1534 1531 1527 1523 1519 1513 1508 1502 1495 1489 1483 1477 1471 1465 1459 1451 1441 1433
1513 1521 1524 1518 1528 1530 1526 1516 1514 1516 1517 1514 1514 1516 1516 1516 1516 1520 1525 1529 1532 1535 1537 1539 1540 1541 1541 1540 1538 1536 1534 1532 1529 1525 1521 1516 1511 1506 1501 1494 1489 1482 1476 1470 1464 1459 1451 1442 1433
1516 1517 1517 1521 1528 1527 1517 1513 1506 1510 1513 1508 1505 1506 1506 1506 1513 1517 1521 1524 1526 1530 1533 1536 1538 1538 1538 1537 1536 1534 1532 1530 1528 1524 1519 1514 1509 1505 1498 1493 1487 1481 1475 1470 1464 1459 1451 1442 1433
1518 1517 1514 1519 1527 1528 1516 1509 1498 1499 1492 1493 1493 1493 1492 1498 1504 1509 1512 1516 1519 1523 1527 1530 1532 1533 1533 1533 1533 1532 1530 1528 1525 1521 1517 1513 1508 1503 1497 1492 1486 1480 1474 1470 1465 1458 1451 1445 1437
1519 1515 1518 1518 1525 1524 1518 1490 1487 1482 1483 1486 1482 1482 1487 1489 1494 1499 1504 1508 1514 1517 1521 1526 1527 1528 1529 1530 1530 1529 1527 1525 1523 1519 1516 1511 1506 1503 1497 1490 1485 1479 1475 1469 1464 1460 1453 1446 1441
1519 1520 1521 1524 1519 1514 1522 1498 1480 1472 1474 1476 1476 1477 1478 1483 1488 1493 1496 1499 1504 1510 1516 1520 1523 1525 1526 1526 1526 1526 1525 1523 1521 1518 1514 1510 1506 1501 1495 1489 1485 1479 1474 1470 1466 1461 1456 1449 1442
1518 1525 1525 1528 1524 1527 1521 1519 1471 1478 1468 1463 1467 1468 1470 1475 1480 1484 1486 1492 1499 1504 1509 1513 1517 1520 1522 1524 1524 1523 1522 1521 1518 1516 1513 1509 1505 1500 1495 1489 1485 1479 1474 1470 1466 1462 1458 1452 1446
1524 1524 1527 1530 1528 1523 1523 1517 1474 1466 1466 1466 1468 1469 1468 1471 1475 1480 1485 1489 1494 1498 1503 1508 1512 1516 1518 1520 1521 1520 1519 1518 1516 1514 1512 1508 1504 1501 1496 1489 1485 1479 1474 1470 1465 1462 1458 1454 1448
1522 1515 1515 1523 1528 1511 1532 1528 1476 1462 1463 1466 1465 1467 1468 1469 1470 1476 1479 1481 1487 1491 1497 1502 1507 1511 1514 1516 1517 1517 1517 1516 1514 1512 1510 1506 1503 1499 1494 1489 1484 1479 1474 1469 1465 1462 1458 1454 1449
1515 1513 1506 1509 1511 1503 1538 1510 1463 1460 1460 1458 1460 1461 1463 1465 1466 1469 1474 1479 1483 1488 1492 1497 1501 1506 1510 1512 1514 1514 1514 1513 1512 1510 1508 1505 1502 1498 1493 1487 1483 1479 1474 1469 1465 1461 1459 1455 1451
1516 1517 1517 1534 1570 1525 1492 1477 1460 1455 1457 1456 1455 1458 1458 1459 1460 1463 1467 1472 1477 1482 1487 1492 1497 1502 1506 1508 1510 1511 1512 1510 1509 1508 1506 1503 1500 1498 1493 1487 1483 1478 1474 1470 1465 1461 1459 1456 1452
1511 1513 1514 1522 1510 1503 1498 1499 1467 1452 1451 1454 1455 1455 1457 1459 1459 1461 1464 1467 1472 1477 1483 1489 1494 1499 1502 1505 1507 1508 1508 1508 1507 1506 1504 1502 1499 1497 1492 1487 1484 1479 1474 1470 1465 1461 1459 1457 1453
1513 1511 1515 1506 1505 1488 1483 1470 1450 1451 1452 1452 1453 1454 1454 1456 1457 1459 1461 1464 1468 1472 1477 1482 1486 1491 1496 1500 1503 1505 1506 1506 1505 1504 1503 1501 1498 1497 1493 1488 1484 1480 1475 1470 1467 1463 1459 1457 1454
1507 1499 1502 1489 1497 1509 1501 1468 1452 1452 1450 1450 1451 1451 1451 1452 1452 1455 1457 1460 1463 1465 1469 1475 1480 1484 1490 1495 1498 1500 1502 1503 1503 1502 1501 1500 1498 1496 1492 1488 1485 1481 1476 1470 1467 1464 1461 1457 1455